PBO Station Position Time Series. Reference Frame : NAM14
Format Version,1.1.0
4-character ID,P791
Station name,MtHoodSki_OR2009
Begin Date, 2009-01-17
End Date, 2019-10-07
Release Date, 2019-10-08
Reference position, 45.3445306955 North Latitude, -121.6726820782 East Longitude, 1985.20263 meters elevation,
Date, North (mm), East (mm), Vertical (mm), North Std. Deviation (mm), East Std. Deviation (mm),              Vertical Std. Deviation (mm), Quality,
2009-01-17,0.00, 0.00, 0.00, 2.68, 1.95, 8.82, repro,
2009-01-18,-2.33, -1.81, -4.41, 2.48, 1.80, 8.21, repro,
2009-01-19,-2.24, -2.34, 3.18, 2.46, 1.71, 8.06, repro,
2009-01-20,-1.50, -3.38, 3.87, 2.53, 1.78, 8.43, repro,
2009-01-21,-1.90, -3.09, 12.05, 2.58, 1.79, 8.44, repro,
2009-01-22,-0.76, -4.87, 8.00, 2.39, 1.66, 7.80, repro,
2009-01-23,-2.41, -4.03, 3.64, 2.36, 1.64, 7.69, repro,
2009-01-24,-2.08, -4.88, -2.78, 2.42, 1.66, 7.81, repro,
2009-01-25,1.00, -8.22, 2.34, 2.32, 1.63, 7.62, repro,
2009-01-26,-0.91, -6.47, 4.57, 2.31, 1.63, 7.61, repro,
2009-01-27,-3.62, -4.28, 6.34, 2.31, 1.66, 7.72, repro,
2009-01-28,-6.78, -1.10, 7.29, 2.46, 1.75, 8.08, repro,
2009-01-29,-2.01, -9.08, -9.82, 2.44, 1.73, 8.08, repro,
2009-01-30,-0.81, -5.83, -0.86, 2.46, 1.72, 8.00, repro,
2009-01-31,0.34, -4.90, 9.57, 2.48, 1.75, 8.22, repro,
2009-02-01,-1.79, -6.28, 3.84, 2.36, 1.68, 7.90, repro,
2009-02-02,-2.58, -1.24, 0.03, 2.42, 1.79, 8.11, repro,
2009-02-03,-2.13, -4.67, -0.26, 2.44, 1.76, 8.08, repro,
2009-02-04,-2.92, -2.66, 10.24, 2.47, 1.75, 8.13, repro,
2009-02-05,-0.74, -4.08, 8.27, 2.48, 1.75, 8.17, repro,
2009-02-06,-0.13, -3.40, 9.82, 2.56, 1.79, 8.33, repro,
2009-02-07,-3.27, -3.23, 8.70, 2.56, 1.86, 8.68, repro,
2009-02-08,-3.55, -2.68, 10.67, 2.63, 1.90, 8.79, repro,
2009-02-09,-2.60, -4.57, 10.35, 2.34, 1.72, 7.84, repro,
2009-02-10,-1.75, -3.07, 12.60, 2.34, 1.69, 7.79, repro,
2009-02-11,-1.31, -3.65, 7.18, 2.57, 1.86, 8.47, repro,
2009-02-12,-2.07, -3.81, 6.89, 2.50, 1.79, 8.26, repro,
2009-02-13,-3.49, -2.66, 12.52, 2.45, 1.81, 8.25, repro,
2009-02-14,-2.79, -3.87, 4.74, 2.45, 1.78, 8.14, repro,
2009-02-15,-3.02, -2.87, 9.97, 2.49, 1.75, 8.22, repro,
2009-02-16,-2.27, -2.78, 15.45, 2.46, 1.71, 7.96, repro,
2009-02-17,-2.64, -3.91, 13.76, 2.47, 1.67, 7.88, repro,
2009-02-18,-1.86, -3.03, 6.12, 2.39, 1.71, 7.96, repro,
2009-02-19,-2.98, -2.68, 7.34, 2.54, 1.87, 8.58, repro,
2009-02-20,-3.64, -3.14, 2.78, 2.41, 1.71, 8.02, repro,
2009-02-21,-2.06, -2.69, 6.51, 2.49, 1.77, 8.25, repro,
2009-02-22,-1.26, -2.95, 5.33, 2.46, 1.76, 8.11, repro,
2009-02-23,-2.43, -3.19, 7.39, 2.52, 1.79, 8.36, repro,
2009-02-24,-5.32, -1.08, 19.60, 2.52, 1.83, 8.33, repro,
2009-02-25,-6.51, -2.76, 12.87, 168.37, 175.08, 337.30, repro,
2009-02-26,-4.57, -0.60, 15.37, 2.44, 1.73, 8.07, repro,
2009-02-27,-1.83, -2.65, 2.27, 2.51, 1.79, 8.45, repro,
2009-02-28,-2.61, -1.39, 1.63, 2.37, 1.71, 7.97, repro,
2009-03-01,-3.22, -0.79, 14.99, 2.51, 1.80, 8.36, repro,
2009-03-02,-4.14, -2.38, 12.51, 2.47, 1.78, 8.21, repro,
2009-03-03,-4.11, -3.54, 12.37, 2.43, 1.72, 8.05, repro,
2009-03-04,-4.92, -3.32, 5.99, 2.31, 1.66, 7.75, repro,
2009-03-05,-5.40, 0.98, 11.17, 2.33, 1.69, 7.82, repro,
2009-03-06,-2.54, -2.36, 8.95, 2.39, 1.76, 8.24, repro,
2009-03-07,-4.04, -2.24, 10.57, 2.41, 1.70, 7.93, repro,
2009-03-08,-3.22, -1.56, 12.05, 2.42, 1.72, 8.02, repro,
2009-03-09,-1.46, -1.92, -0.52, 2.43, 1.77, 8.26, repro,
2009-03-10,-4.25, -3.97, 4.30, 2.36, 1.73, 8.07, repro,
2009-03-11,-1.86, -3.21, 0.90, 2.40, 1.72, 8.00, repro,
2009-03-12,-3.19, -2.31, 1.15, 2.40, 1.73, 8.00, repro,
2009-03-13,-2.97, -3.02, 2.41, 2.46, 1.77, 8.31, repro,
2009-03-14,-2.53, -0.77, 14.21, 2.37, 1.73, 8.00, repro,
2009-03-15,-4.42, -1.56, 21.35, 2.36, 1.73, 7.98, repro,
2009-03-16,-3.80, -4.42, 18.53, 2.39, 1.73, 8.04, repro,
2009-03-17,-6.30, -0.26, 25.26, 2.44, 1.77, 8.21, repro,
2009-03-18,-4.08, -0.46, 6.97, 2.45, 1.78, 8.25, repro,
2009-03-19,-4.09, -0.08, 4.98, 2.47, 1.77, 8.32, repro,
2009-03-20,-4.49, -2.30, 7.99, 2.42, 1.76, 8.14, repro,
2009-03-21,-7.14, -0.97, 8.14, 2.42, 1.76, 8.17, repro,
2009-03-22,-4.97, -0.70, 6.61, 2.47, 1.79, 8.33, repro,
2009-03-23,-4.03, 1.31, 2.49, 2.50, 1.83, 8.50, repro,
2009-03-24,-10.34, 6.24, 16.07, 2.35, 1.76, 8.17, repro,
2009-03-25,-7.80, 8.70, 16.19, 2.40, 1.79, 8.30, repro,
2009-03-26,-16.57, 6.54, 15.83, 2.51, 1.88, 8.71, repro,
2009-03-27,-8.82, 7.17, 16.16, 2.48, 1.81, 8.48, repro,
2009-03-28,-9.73, 12.97, 0.84, 2.55, 1.81, 8.43, repro,
2009-03-29,-27.60, 29.66, 30.25, 2.72, 2.10, 10.00, repro,
2009-03-30,-13.37, 19.85, -4.78, 2.48, 1.83, 8.49, repro,
2009-03-31,-17.68, 36.68, 15.52, 2.43, 1.81, 8.42, repro,
2009-04-01,-18.23, 41.36, 17.78, 2.67, 1.91, 9.03, repro,
2009-04-02,-21.75, 50.85, 33.68, 2.66, 2.03, 9.17, repro,
2009-04-03,-47.73, 69.78, 92.64, 2.66, 1.94, 9.35, repro,
2009-04-04,-32.48, 61.03, 76.32, 2.61, 1.87, 9.06, repro,
2009-04-05,-22.00, 61.73, 40.33, 2.58, 1.85, 8.92, repro,
2009-04-06,-17.86, 61.09, 3.87, 2.63, 1.85, 9.20, repro,
2009-04-07,-10.24, 53.03, -3.64, 2.53, 1.90, 8.96, repro,
2009-04-08,-5.93, 40.43, -1.26, 2.49, 1.85, 8.65, repro,
2009-04-09,-8.54, 38.49, -4.15, 2.48, 1.88, 8.70, repro,
2009-04-10,-11.90, 35.65, -1.18, 2.46, 1.81, 8.52, repro,
2009-04-11,-7.24, 32.59, -0.21, 2.50, 1.83, 8.68, repro,
2009-04-12,-4.50, 42.66, -7.70, 2.51, 1.84, 8.70, repro,
2009-04-13,-9.79, 41.87, 14.09, 2.49, 1.84, 8.55, repro,
2009-04-14,-21.02, 60.22, 39.72, 2.74, 1.90, 8.88, repro,
2009-04-15,-39.66, 83.56, 77.20, 2.66, 1.97, 9.23, repro,
2009-04-16,-41.99, 96.50, 83.43, 2.59, 1.88, 9.16, repro,
2009-04-17,-24.59, 85.88, 43.27, 2.60, 1.94, 9.26, repro,
2009-04-18,-20.58, 70.44, 24.33, 2.49, 1.85, 8.62, repro,
2009-04-19,-13.27, 65.74, 9.74, 2.49, 1.84, 8.50, repro,
2009-04-20,-7.15, 48.76, -1.07, 2.51, 1.89, 8.88, repro,
2009-04-21,-6.09, 38.17, 2.56, 2.53, 1.88, 8.87, repro,
2009-04-22,-5.18, 29.65, 5.46, 2.49, 1.85, 8.66, repro,
2009-04-23,-5.47, 28.22, 11.95, 2.55, 1.88, 8.65, repro,
2009-04-24,-11.18, 36.69, 1.44, 2.59, 1.96, 8.90, repro,
2009-04-25,-12.08, 38.27, -1.62, 2.51, 1.88, 8.55, repro,
2009-04-26,-11.43, 45.19, -4.84, 2.51, 1.82, 8.42, repro,
2009-04-27,-13.96, 48.41, 0.62, 2.53, 1.86, 8.61, repro,
2009-04-28,-12.02, 57.56, -1.07, 2.47, 1.82, 8.50, repro,
2009-04-29,-7.96, 60.25, -10.03, 2.55, 1.93, 8.80, repro,
2009-04-30,-8.24, 61.16, -0.31, 2.50, 1.85, 8.52, repro,
2009-05-01,-10.70, 65.23, -0.34, 2.51, 1.87, 8.61, repro,
2009-05-02,-10.86, 69.10, -2.44, 2.52, 1.88, 8.59, repro,
2009-05-03,-12.03, 67.51, 1.68, 2.55, 1.88, 8.58, repro,
2009-05-04,-9.97, 67.72, 4.33, 2.51, 1.86, 8.39, repro,
2009-05-05,-13.83, 70.34, 21.37, 2.58, 1.92, 8.74, repro,
2009-05-06,-5.75, 73.85, 0.05, 2.51, 1.87, 8.47, repro,
2009-05-07,-12.47, 74.72, 12.89, 2.53, 1.89, 8.51, repro,
2009-05-08,-18.41, 74.97, 3.71, 2.56, 1.89, 8.71, repro,
2009-05-09,-6.61, 77.32, -6.97, 2.51, 1.87, 8.49, repro,
2009-05-10,-7.20, 77.90, 2.54, 2.61, 2.03, 9.06, repro,
2009-05-11,-5.51, 84.10, -7.27, 2.57, 1.99, 8.78, repro,
2009-05-12,-8.17, 83.71, 7.14, 2.50, 1.89, 8.47, repro,
2009-05-13,-33.84, 112.39, 83.46, 2.55, 1.86, 8.58, repro,
2009-05-14,-42.47, 102.93, 79.18, 2.60, 1.91, 8.89, repro,
2009-05-15,-6.67, 84.90, 3.71, 2.50, 1.88, 8.66, repro,
2009-05-16,-1.34, 89.60, -10.52, 2.44, 1.83, 8.26, repro,
2009-05-17,-3.27, 86.54, 0.59, 2.48, 1.87, 8.60, repro,
2009-05-18,-4.68, 78.99, -2.25, 2.64, 2.07, 9.50, repro,
2009-05-19,-5.38, 70.26, 8.50, 2.55, 1.94, 8.84, repro,
2009-05-20,-3.05, 69.84, -2.37, 2.57, 2.00, 9.04, repro,
2009-05-21,-2.89, 68.16, 0.15, 2.51, 1.92, 8.81, repro,
2009-05-22,-3.75, 67.00, 1.98, 2.51, 1.95, 8.65, repro,
2009-05-23,-5.02, 57.26, -6.65, 2.51, 1.94, 8.65, repro,
2009-05-24,-5.68, 48.40, -2.89, 2.42, 1.82, 8.34, repro,
2009-05-25,-5.68, 43.40, -2.47, 2.47, 1.83, 8.43, repro,
2009-05-26,-5.01, 38.18, 1.97, 2.47, 1.79, 8.23, repro,
2009-05-27,-4.52, 38.78, 4.47, 2.48, 1.80, 8.22, repro,
2009-05-28,-4.63, 39.33, 11.11, 2.51, 1.80, 8.25, repro,
2009-05-29,-5.04, 38.67, 6.16, 2.60, 1.92, 8.75, repro,
2009-05-30,-5.44, 39.04, 6.37, 2.43, 1.78, 8.20, repro,
2009-05-31,-5.26, 40.77, 7.32, 2.46, 1.77, 8.26, repro,
2009-06-01,-4.47, 42.22, 21.01, 2.47, 1.76, 8.24, repro,
2009-06-02,-4.72, 41.36, 6.55, 2.49, 1.78, 8.27, repro,
2009-06-03,-2.76, 45.30, -0.11, 2.47, 1.77, 8.24, repro,
2009-06-04,-2.20, 45.49, 5.18, 2.45, 1.76, 8.20, repro,
2009-06-05,-1.74, 2.89, 4.88, 2.41, 1.70, 7.96, repro,
2009-06-06,-1.61, 2.38, 3.91, 2.49, 1.74, 8.19, repro,
2009-06-07,-3.64, 2.63, 9.54, 2.58, 1.79, 8.26, repro,
2009-06-08,-5.30, 2.87, 15.01, 2.45, 1.71, 7.91, repro,
2009-06-09,-4.79, 2.42, 13.67, 2.38, 1.66, 7.74, repro,
2009-06-10,-4.94, 2.14, 3.41, 2.49, 1.81, 8.23, repro,
2009-06-11,-4.46, 4.60, -0.38, 2.42, 1.74, 8.02, repro,
2009-06-12,-2.64, 3.36, 1.67, 2.53, 1.86, 8.42, repro,
2009-06-13,-2.73, 1.39, 1.57, 2.46, 1.68, 7.82, repro,
2009-06-14,-4.25, 2.39, 3.28, 2.45, 1.68, 7.82, repro,
2009-06-15,-4.20, 4.83, 9.29, 2.44, 1.73, 8.03, repro,
2009-06-16,-5.41, 3.70, 9.10, 2.49, 1.75, 8.16, repro,
2009-06-17,-2.34, 1.64, 6.18, 2.45, 1.77, 8.14, repro,
2009-06-18,-1.90, 1.43, 3.81, 2.48, 1.70, 7.98, repro,
2009-06-19,-1.76, 0.57, 10.22, 2.63, 1.88, 8.53, repro,
2009-06-20,-3.96, 1.43, 6.05, 2.47, 1.74, 8.07, repro,
2009-06-21,-2.89, -0.26, 16.43, 2.45, 1.68, 7.90, repro,
2009-06-22,-3.27, 1.14, 0.67, 2.40, 1.67, 7.68, repro,
2009-06-23,-4.61, 2.57, 14.73, 2.33, 1.65, 7.68, repro,
2009-06-24,-3.77, 4.67, 8.74, 2.46, 1.70, 7.90, repro,
2009-06-25,-6.88, 3.74, 12.14, 2.42, 1.67, 7.77, repro,
2009-06-26,-6.19, 2.17, 13.30, 2.52, 1.68, 7.89, repro,
2009-06-27,-4.51, 2.39, 5.20, 2.45, 1.70, 7.94, repro,
2009-06-28,-4.35, 2.94, 11.92, 2.47, 1.73, 8.03, repro,
2009-06-29,-4.25, 3.08, 14.36, 2.39, 1.71, 7.93, repro,
2009-06-30,-4.46, 1.95, 11.41, 2.50, 1.76, 8.17, repro,
2009-07-01,-4.59, 1.86, 12.58, 2.44, 1.70, 7.94, repro,
2009-07-02,-5.24, 1.33, 15.50, 2.63, 1.76, 8.27, repro,
2009-07-03,-4.07, 2.70, 9.96, 2.48, 1.71, 8.01, repro,
2009-07-04,-4.75, 1.94, 13.59, 2.44, 1.69, 7.85, repro,
2009-07-05,-3.42, 4.18, 11.85, 2.43, 1.70, 7.83, repro,
2009-07-06,-3.26, -0.40, 12.53, 2.47, 1.71, 7.89, repro,
2009-07-07,-3.00, -0.89, 5.08, 2.45, 1.73, 7.92, repro,
2009-07-08,-4.90, 1.36, 8.36, 2.36, 1.65, 7.66, repro,
2009-07-09,-5.33, 0.41, 14.89, 2.39, 1.68, 7.82, repro,
2009-07-10,-5.08, 1.30, 10.59, 2.43, 1.71, 7.86, repro,
2009-07-11,-3.77, 1.05, 9.64, 2.35, 1.69, 7.74, repro,
2009-07-12,-6.04, 0.79, 9.33, 2.54, 1.79, 8.13, repro,
2009-07-13,-2.05, 0.83, 19.54, 2.36, 1.66, 7.67, repro,
2009-07-14,-3.07, 0.07, 19.45, 2.56, 1.73, 7.95, repro,
2009-07-15,-5.51, 3.27, 19.31, 2.51, 1.74, 8.01, repro,
2009-07-16,-5.23, 2.14, 15.42, 2.41, 1.70, 7.81, repro,
2009-07-17,-4.26, 1.48, 17.28, 2.49, 1.76, 7.93, repro,
2009-07-18,-3.96, 2.23, 20.42, 2.54, 1.77, 8.07, repro,
2009-07-19,-7.36, 2.94, 12.63, 2.54, 1.76, 8.06, repro,
2009-07-20,-5.77, 2.44, 17.97, 2.43, 1.70, 7.86, repro,
2009-07-21,-5.57, 2.15, 15.57, 2.45, 1.72, 7.95, repro,
2009-07-22,-5.04, 1.86, 21.95, 2.43, 1.71, 7.87, repro,
2009-07-23,-3.40, -0.45, 16.16, 2.40, 1.68, 7.70, repro,
2009-07-24,-3.16, -2.12, 10.06, 2.45, 1.73, 7.94, repro,
2009-07-25,-6.27, 0.79, 18.04, 2.49, 1.70, 7.94, repro,
2009-07-26,0.17, -4.44, 0.20, 2.54, 1.74, 8.14, repro,
2009-07-27,-6.15, 3.35, 9.75, 2.45, 1.73, 7.93, repro,
2009-07-28,-4.00, -0.30, 20.77, 2.43, 1.70, 7.83, repro,
2009-07-29,-2.95, 1.56, 14.50, 2.42, 1.71, 7.82, repro,
2009-07-30,-5.06, 3.21, 20.36, 2.56, 1.75, 8.09, repro,
2009-07-31,-7.83, 3.91, 21.28, 2.50, 1.72, 7.94, repro,
2009-08-01,-5.85, 1.13, 23.54, 2.46, 1.70, 7.89, repro,
2009-08-02,-4.90, 1.40, 15.58, 2.45, 1.71, 7.84, repro,
2009-08-03,-5.19, -0.06, 15.38, 2.44, 1.72, 7.88, repro,
2009-08-04,-3.63, 0.85, 8.86, 2.47, 1.72, 7.94, repro,
2009-08-05,-7.26, 1.30, 23.99, 2.51, 1.77, 8.08, repro,
2009-08-06,-6.06, 1.00, 24.90, 2.45, 1.71, 7.90, repro,
2009-08-07,-0.20, -3.76, 9.41, 2.71, 1.94, 9.10, repro,
2009-08-08,-1.79, 0.13, 11.61, 2.42, 1.68, 7.72, repro,
2009-08-09,-6.15, -0.78, 7.61, 2.55, 1.74, 7.93, repro,
2009-08-10,-5.10, 1.66, 7.63, 2.46, 1.73, 7.90, repro,
2009-08-11,-5.49, 3.96, 16.91, 2.39, 1.70, 7.79, repro,
2009-08-12,-4.44, 3.89, 15.76, 2.49, 1.71, 7.93, repro,
2009-08-13,-3.16, -2.53, 7.96, 2.46, 1.71, 7.86, repro,
2009-08-14,2.21, -7.31, 7.48, 2.46, 1.71, 7.77, repro,
2009-08-15,3.63, 0.04, 7.66, 2.53, 1.74, 7.96, repro,
2009-08-16,-3.27, -1.00, 8.89, 2.53, 1.75, 7.98, repro,
2009-08-17,-4.41, 0.55, 22.06, 2.55, 1.74, 7.99, repro,
2009-08-18,-5.98, 1.31, 25.05, 2.54, 1.74, 7.99, repro,
2009-08-19,-5.58, 0.27, 20.76, 2.50, 1.73, 7.86, repro,
2009-08-20,-3.21, 0.39, 19.43, 2.50, 1.72, 7.84, repro,
2009-08-21,-4.96, -1.82, 13.10, 2.58, 1.79, 8.11, repro,
2009-08-22,-5.16, 1.42, 18.85, 2.53, 1.73, 7.92, repro,
2009-08-23,-8.57, 1.76, 24.79, 2.52, 1.72, 7.97, repro,
2009-08-24,-5.12, -0.19, 22.25, 2.54, 1.77, 8.13, repro,
2009-08-25,-3.91, -0.17, 20.44, 2.49, 1.72, 7.92, repro,
2009-08-26,-5.52, 0.49, 17.68, 2.51, 1.75, 8.03, repro,
2009-08-27,-4.79, 0.56, 17.32, 2.51, 1.76, 8.05, repro,
2009-08-28,-4.98, 0.15, 15.64, 2.51, 1.73, 7.97, repro,
2009-08-29,-4.60, 2.61, 13.52, 2.50, 1.74, 7.97, repro,
2009-08-30,-3.08, -0.41, 14.64, 2.47, 1.72, 7.82, repro,
2009-08-31,-6.80, -0.80, 14.86, 2.43, 1.71, 7.79, repro,
2009-09-01,-7.50, 0.41, 21.15, 2.44, 1.70, 7.81, repro,
2009-09-02,-6.56, 3.20, 25.29, 2.45, 1.72, 7.89, repro,
2009-09-03,-10.18, 0.74, 27.25, 2.46, 1.70, 7.88, repro,
2009-09-04,-4.68, 0.01, 18.42, 2.45, 1.71, 7.91, repro,
2009-09-05,-5.73, 0.55, 22.34, 2.41, 1.71, 7.74, repro,
2009-09-06,-8.19, 0.74, 30.14, 2.46, 1.72, 7.87, repro,
2009-09-07,-3.96, 3.18, 13.76, 2.46, 1.72, 8.06, repro,
2009-09-08,-5.85, -0.09, 18.85, 2.47, 1.72, 7.97, repro,
2009-09-09,-5.80, -0.82, 21.57, 2.44, 1.68, 7.82, repro,
2009-09-10,-4.99, 0.26, 17.18, 2.46, 1.72, 7.91, repro,
2009-09-11,-4.66, -0.17, 17.89, 2.44, 1.75, 7.87, repro,
2009-09-12,-4.95, -0.21, 20.85, 2.43, 1.71, 7.81, repro,
2009-09-13,-5.92, -0.31, 27.05, 2.44, 1.75, 8.09, repro,
2009-09-14,-6.05, -0.12, 29.39, 2.43, 1.74, 7.93, repro,
2009-09-15,-5.85, 0.39, 20.37, 2.47, 1.77, 8.04, repro,
2009-09-16,-7.28, -0.71, 14.37, 2.50, 1.79, 8.13, repro,
2009-09-17,-6.00, -1.91, 13.93, 2.46, 1.79, 8.15, repro,
2009-09-18,-6.35, -0.17, 17.66, 2.52, 1.82, 8.33, repro,
2009-09-19,-4.84, 1.31, 9.58, 2.55, 1.75, 8.13, repro,
2009-09-20,-5.88, -3.10, 18.01, 2.37, 1.70, 7.82, repro,
2009-09-21,-4.62, -0.83, 12.48, 2.38, 1.73, 7.81, repro,
2009-09-22,-5.35, -0.07, 14.65, 2.45, 1.77, 7.97, repro,
2009-09-23,-6.25, -0.05, 17.01, 2.47, 1.76, 7.97, repro,
2009-09-24,-7.82, 0.57, 21.96, 2.41, 1.73, 7.82, repro,
2009-09-25,-6.21, -0.68, 17.39, 2.36, 1.69, 7.77, repro,
2009-09-26,-6.00, -3.80, 23.91, 2.34, 1.69, 7.71, repro,
2009-09-27,-6.19, -0.63, 18.87, 2.38, 1.73, 7.79, repro,
2009-09-28,-7.10, 0.62, 24.19, 2.41, 1.69, 7.75, repro,
2009-09-29,-4.66, -1.06, 19.54, 2.40, 1.72, 7.80, repro,
2009-09-30,-8.55, 1.85, 8.54, 2.38, 1.69, 7.77, repro,
2009-10-01,-5.79, -1.37, 5.37, 2.40, 1.74, 7.93, repro,
2009-10-02,-3.77, -6.11, 10.96, 2.45, 1.77, 7.99, repro,
2009-10-03,-3.82, -1.26, 15.61, 2.52, 1.79, 8.06, repro,
2009-10-04,-5.14, -3.49, 16.85, 2.46, 1.76, 7.98, repro,
2009-10-05,-2.62, -2.06, 8.02, 2.33, 1.67, 7.67, repro,
2009-10-06,-5.97, -0.03, 18.74, 2.36, 1.69, 7.71, repro,
2009-10-07,-5.37, -1.29, 20.03, 2.49, 1.79, 8.13, repro,
2009-10-08,-7.86, -0.84, 18.50, 2.49, 1.77, 8.11, repro,
2009-10-09,-8.91, -1.41, 9.67, 2.48, 1.72, 7.91, repro,
2009-10-10,-7.54, 0.94, 19.69, 2.37, 1.72, 7.78, repro,
2009-10-11,-5.06, -0.31, 17.42, 2.44, 1.75, 7.91, repro,
2009-10-12,-6.97, 1.92, 21.36, 2.39, 1.68, 7.72, repro,
2009-10-13,-7.43, 0.53, 29.35, 2.33, 1.68, 7.67, repro,
2009-10-14,-6.08, 4.39, 33.38, 2.40, 1.68, 7.70, repro,
2009-10-15,-6.62, 3.98, 16.60, 2.46, 1.79, 8.08, repro,
2009-10-16,-6.84, 5.82, 17.24, 2.34, 1.73, 7.80, repro,
2009-10-17,-7.35, 3.25, 26.72, 2.38, 1.75, 7.86, repro,
2009-10-18,-7.50, 0.71, 15.22, 2.39, 1.77, 7.95, repro,
2009-10-19,-7.37, 0.39, 24.97, 2.47, 1.80, 8.14, repro,
2009-10-20,-5.24, -0.46, 16.30, 2.43, 1.78, 8.02, repro,
2009-10-21,-4.35, 1.79, 12.00, 2.36, 1.77, 7.86, repro,
2009-10-22,-6.99, -1.17, 19.79, 2.38, 1.77, 7.92, repro,
2009-10-23,-8.16, 1.62, 24.17, 2.40, 1.77, 7.91, repro,
2009-10-24,-5.38, 0.71, 20.47, 2.38, 1.72, 7.74, repro,
2009-10-25,-7.08, -0.11, 21.30, 2.50, 1.80, 8.19, repro,
2009-10-26,-8.41, 3.80, 32.34, 2.45, 1.82, 8.20, repro,
2009-10-27,-5.94, -0.03, 23.17, 2.41, 1.78, 8.00, repro,
2009-10-28,-4.56, -2.00, 18.22, 2.48, 1.77, 8.05, repro,
2009-10-29,-9.85, 6.73, 21.68, 2.52, 1.73, 7.98, repro,
2009-10-30,-4.46, 5.10, 17.15, 2.39, 1.72, 7.78, repro,
2009-10-31,-8.30, 1.49, 35.40, 2.35, 1.71, 7.81, repro,
2009-11-01,-4.23, -2.46, 13.52, 2.38, 1.74, 7.99, repro,
2009-11-02,-5.34, 0.84, 16.45, 2.38, 1.70, 7.72, repro,
2009-11-03,-5.59, 0.40, 19.35, 2.41, 1.72, 7.88, repro,
2009-11-04,-5.64, 0.97, 22.08, 2.48, 1.74, 8.08, repro,
2009-11-05,-5.31, 1.36, 30.35, 2.59, 1.86, 8.42, repro,
2009-11-06,-6.78, 3.48, 41.55, 2.48, 1.77, 8.04, repro,
2009-11-07,-8.61, 1.38, 35.55, 2.46, 1.82, 8.10, repro,
2009-11-08,-7.34, 3.47, 34.33, 2.48, 1.82, 8.14, repro,
2009-11-09,-6.61, 3.18, 24.00, 2.44, 1.79, 7.96, repro,
2009-11-10,-8.54, 1.53, 26.97, 2.48, 1.77, 8.14, repro,
2009-11-11,-4.74, -0.53, 18.15, 2.45, 1.76, 7.98, repro,
2009-11-12,-4.25, -0.38, 22.04, 2.51, 1.85, 8.35, repro,
2009-11-13,-5.86, -0.41, 24.39, 2.43, 1.78, 8.08, repro,
2009-11-14,-6.43, -0.47, 27.85, 2.54, 1.84, 8.25, repro,
2009-11-15,-5.54, -0.70, 18.34, 2.41, 1.78, 7.98, repro,
2009-11-16,-4.84, 3.90, 21.19, 2.36, 1.72, 7.85, repro,
2009-11-17,-3.51, 1.94, 26.43, 2.56, 1.80, 8.32, repro,
2009-11-18,-5.04, 0.17, 23.73, 2.51, 1.79, 8.27, repro,
2009-11-19,-5.17, 1.65, 28.75, 2.48, 1.78, 8.05, repro,
2009-11-20,-4.83, -1.18, 29.08, 2.39, 1.74, 7.89, repro,
2009-11-21,-7.18, 5.46, 23.90, 2.32, 1.67, 7.69, repro,
2009-11-22,-5.24, 3.53, 27.80, 2.31, 1.68, 7.65, repro,
2009-11-23,-5.39, -3.01, 18.82, 2.34, 1.67, 7.69, repro,
2009-11-24,-3.30, -2.86, 4.52, 2.35, 1.69, 7.74, repro,
2009-11-25,-4.66, -0.55, 9.16, 2.37, 1.74, 7.87, repro,
2009-11-26,-3.90, 0.95, 15.34, 2.42, 1.74, 7.81, repro,
2009-11-27,-4.35, -0.73, 15.39, 2.34, 1.71, 7.70, repro,
2009-11-28,-1.47, -2.77, 10.34, 2.34, 1.69, 7.58, repro,
2009-11-29,-3.63, -1.24, 5.60, 2.41, 1.75, 8.00, repro,
2009-11-30,-5.52, -0.47, 10.62, 2.35, 1.70, 7.78, repro,
2009-12-01,-0.17, -3.03, 10.04, 2.31, 1.67, 7.56, repro,
2009-12-02,-2.22, -1.97, 12.81, 2.39, 1.66, 7.63, repro,
2009-12-03,-2.52, -1.99, 7.53, 2.42, 1.69, 7.76, repro,
2009-12-04,-4.51, -2.33, 9.36, 2.30, 1.63, 7.46, repro,
2009-12-05,-4.04, -2.10, 2.09, 2.30, 1.65, 7.58, repro,
2009-12-06,-5.66, -1.04, 12.19, 2.32, 1.66, 7.67, repro,
2009-12-07,-5.65, -1.57, 17.69, 2.40, 1.67, 7.76, repro,
2009-12-08,-4.28, -2.32, 15.57, 2.37, 1.66, 7.65, repro,
2009-12-09,-2.65, -1.45, 15.78, 2.39, 1.72, 7.84, repro,
2009-12-10,-5.80, -2.08, 14.01, 2.37, 1.69, 7.61, repro,
2009-12-11,-5.47, -3.03, 10.31, 2.51, 1.87, 8.45, repro,
2009-12-12,-4.27, -0.35, 13.77, 2.34, 1.72, 7.76, repro,
2009-12-13,-3.82, 0.15, 15.95, 2.49, 1.70, 7.84, repro,
2009-12-14,-5.65, 3.73, 18.34, 2.30, 1.63, 7.48, repro,
2009-12-15,-3.86, 2.14, 20.41, 2.30, 1.63, 7.48, repro,
2009-12-16,-6.37, 4.57, 31.11, 2.40, 1.71, 7.97, repro,
2009-12-17,-6.40, 5.36, 10.12, 2.35, 1.70, 7.71, repro,
2009-12-18,-7.29, -0.09, 14.45, 2.45, 1.76, 8.05, repro,
2009-12-19,-5.46, 5.29, 8.69, 2.41, 1.75, 7.99, repro,
2009-12-20,-5.93, 2.95, 13.93, 2.38, 1.69, 7.77, repro,
2009-12-21,-4.92, 2.13, 18.71, 2.41, 1.72, 7.89, repro,
2009-12-22,-6.24, -0.85, 11.15, 2.37, 1.69, 7.81, repro,
2009-12-23,0.70, -4.15, 7.89, 2.43, 1.72, 7.88, repro,
2009-12-24,-4.56, -2.65, 6.02, 2.44, 1.72, 7.82, repro,
2009-12-25,-5.21, -0.80, 8.67, 2.32, 1.64, 7.49, repro,
2009-12-26,-6.06, -0.44, 11.00, 2.31, 1.63, 7.55, repro,
2009-12-27,-7.20, -0.39, 14.86, 2.33, 1.67, 7.69, repro,
2009-12-28,-5.57, -0.90, 13.29, 2.39, 1.71, 7.71, repro,
2009-12-29,-4.99, -1.29, 10.95, 2.32, 1.67, 7.61, repro,
2009-12-30,-5.24, 2.93, 7.15, 2.29, 1.62, 7.42, repro,
2009-12-31,-5.42, 1.93, 6.68, 2.31, 1.63, 7.52, repro,
2010-01-01,-6.06, 2.42, 23.94, 2.33, 1.65, 7.61, repro,
2010-01-02,-5.46, 4.59, 10.08, 2.33, 1.67, 7.59, repro,
2010-01-03,-7.02, 1.49, 9.44, 2.40, 1.69, 7.70, repro,
2010-01-04,-4.09, 4.07, 12.03, 2.34, 1.64, 7.59, repro,
2010-01-05,-2.57, 11.08, 2.92, 2.35, 1.64, 7.68, repro,
2010-01-06,-2.44, -0.58, 5.38, 2.34, 1.65, 7.63, repro,
2010-01-07,-4.35, 0.06, 3.99, 2.30, 1.63, 7.55, repro,
2010-01-08,-5.83, -0.34, 9.33, 2.30, 1.63, 7.56, repro,
2010-01-09,-6.30, 2.79, 13.68, 2.37, 1.68, 7.77, repro,
2010-01-10,-4.80, -0.31, 15.13, 2.31, 1.62, 7.53, repro,
2010-01-11,-3.26, 1.73, 7.58, 2.32, 1.62, 7.56, repro,
2010-01-12,-5.44, 1.65, 23.67, 2.31, 1.64, 7.61, repro,
2010-01-13,-5.85, 3.39, 19.35, 2.35, 1.68, 7.71, repro,
2010-01-14,-4.17, 4.33, 6.52, 2.40, 1.73, 8.10, repro,
2010-01-15,-4.97, 2.08, 9.91, 2.38, 1.66, 7.72, repro,
2010-01-16,-3.76, -0.28, 8.59, 2.36, 1.67, 7.76, repro,
2010-01-17,-6.11, 0.79, 18.60, 2.32, 1.64, 7.58, repro,
2010-01-18,-6.67, -1.83, 22.78, 2.40, 1.69, 7.83, repro,
2010-01-19,-9.49, -2.80, 24.06, 2.40, 1.68, 7.85, repro,
2010-01-20,-6.41, -4.56, 23.94, 2.43, 1.70, 7.85, repro,
2010-01-21,-7.51, -3.01, 25.30, 2.44, 1.70, 7.89, repro,
2010-01-22,-5.06, -6.57, 20.75, 2.44, 1.69, 7.81, repro,
2010-01-23,-4.81, -5.71, 1.61, 2.33, 1.69, 7.71, repro,
2010-01-24,-5.11, -2.99, 9.38, 2.35, 1.67, 7.66, repro,
2010-01-25,-7.50, -0.18, 14.15, 2.37, 1.70, 7.81, repro,
2010-01-26,-6.97, -1.05, 13.31, 2.39, 1.69, 7.76, repro,
2010-01-27,-5.54, -2.87, 2.68, 2.44, 1.75, 8.05, repro,
2010-01-28,-6.02, -3.45, -1.35, 2.37, 1.70, 7.87, repro,
2010-01-29,-6.21, -2.84, 4.20, 2.31, 1.63, 7.54, repro,
2010-01-30,-6.25, -2.63, -1.40, 2.36, 1.67, 7.70, repro,
2010-01-31,-6.54, -3.38, 8.35, 2.30, 1.63, 7.55, repro,
2010-02-01,-7.23, -1.56, 11.87, 2.47, 1.79, 8.21, repro,
2010-02-02,-5.99, -2.56, 17.57, 2.44, 1.73, 8.08, repro,
2010-02-03,-5.99, -2.47, 12.09, 2.31, 1.67, 7.73, repro,
2010-02-04,-7.37, -2.69, 13.78, 2.38, 1.74, 8.00, repro,
2010-02-05,-6.04, -3.58, 7.83, 2.40, 1.75, 8.07, repro,
2010-02-06,-5.88, -4.49, 6.87, 2.35, 1.67, 7.67, repro,
2010-02-07,-6.32, -2.62, 2.36, 2.41, 1.69, 7.82, repro,
2010-02-08,-6.12, -2.75, 8.63, 2.45, 1.76, 8.20, repro,
2010-02-09,-7.57, -3.21, 14.41, 2.47, 1.76, 8.18, repro,
2010-02-10,-6.43, -3.61, 8.34, 2.43, 1.77, 7.98, repro,
2010-02-11,-5.20, 3.60, 7.22, 2.37, 1.69, 7.79, repro,
2010-02-12,-7.42, -0.33, 22.33, 2.37, 1.70, 7.75, repro,
2010-02-13,-5.40, -1.37, 10.09, 2.34, 1.67, 7.70, repro,
2010-02-14,-4.10, -0.75, -3.61, 2.43, 1.79, 8.31, repro,
2010-02-15,-6.67, -3.32, 4.23, 2.40, 1.72, 8.03, repro,
2010-02-16,-4.31, -4.83, 10.11, 2.53, 1.74, 8.15, repro,
2010-02-17,-3.53, -6.28, 7.08, 2.45, 1.71, 8.00, repro,
2010-02-18,-5.69, -4.35, 3.22, 2.45, 1.74, 8.05, repro,
2010-02-19,-6.71, -4.95, 1.28, 2.53, 1.81, 8.36, repro,
2010-02-20,-5.65, -4.85, 2.93, 2.38, 1.71, 7.89, repro,
2010-02-21,-5.99, -6.79, -0.57, 2.36, 1.71, 7.92, repro,
2010-02-22,-5.47, -4.57, 0.97, 2.52, 1.84, 8.47, repro,
2010-02-23,-5.27, -3.86, 2.70, 2.40, 1.70, 7.80, repro,
2010-02-24,-4.12, 1.11, 4.83, 2.37, 1.66, 7.75, repro,
2010-02-25,-6.27, -0.72, 2.23, 2.39, 1.74, 8.04, repro,
2010-02-26,-6.00, -3.02, 11.08, 2.34, 1.70, 7.87, repro,
2010-02-27,-6.25, -4.65, 17.55, 2.33, 1.72, 7.93, repro,
2010-02-28,-6.12, -5.69, 10.63, 2.31, 1.65, 7.67, repro,
2010-03-01,-6.08, -4.28, 8.53, 2.36, 1.70, 7.88, repro,
2010-03-02,-6.09, -2.96, 15.27, 2.31, 1.64, 7.65, repro,
2010-03-03,-5.20, -5.49, 15.54, 2.36, 1.71, 7.91, repro,
2010-03-04,-7.12, -5.40, 12.13, 2.34, 1.68, 7.80, repro,
2010-03-05,-5.24, -6.34, 7.94, 2.29, 1.64, 7.57, repro,
2010-03-06,-5.71, -6.55, 8.45, 2.31, 1.64, 7.60, repro,
2010-03-07,-6.31, -4.22, 16.22, 2.31, 1.63, 7.60, repro,
2010-03-08,-4.77, -7.21, 16.17, 2.35, 1.70, 7.90, repro,
2010-03-09,-4.88, -5.62, 16.57, 2.30, 1.64, 7.63, repro,